Regional Weather Roundup
Issued by NWS Little Rock, AR

Home | Current Version | Previous Version | Graphics & Text | Print | Product List | Glossary On
Versions: 1 2 3 4 5 6 7 8 9 10 11 12 13 14 15 16 17 18 19 20 21 22 23 24 25 26 27 28 29 30 31 32 33 34 35 36 37 38 39 40 41 42 43 44 45 46 47 48 49 50
000
ASUS44 KLZK 230015
RWRLZK

WEATHER ROUNDUP FOR ARKANSAS
NATIONAL WEATHER SERVICE LITTLE ROCK AR
700 PM CDT SUN APR 22 2018

NOTE: "FAIR" INDICATES FEW OR NO CLOUDS BELOW 12,000 FEET WITH NO
SIGNIFICANT WEATHER AND/OR OBSTRUCTIONS TO VISIBILITY.

ARZ001-003-010-029-230100-
NORTHWEST ARKANSAS

CITY           SKY/WX    TMP DP  RH WIND       PRES   REMARKS
FAYETTEVILLE   CLOUDY    52  51  97 W5        29.94S
6HR MIN TEMP:  50; 6HR MAX TEMP:  53;

FORT SMITH     CLOUDY    54  53  97 W8        29.95S
6HR MIN TEMP:  53; 6HR MAX TEMP:  54; 6HR PCP:  0.01;

HARRISON       CLOUDY    53  53 100 NW3       29.92S
6HR MIN TEMP:  53; 6HR MAX TEMP:  63; 6HR PCP:  0.04;

BENTONVILLE    CLOUDY    54  52  93 W5        29.96R
6HR MIN TEMP:  53; 6HR MAX TEMP:  56; 6HR PCP:  0.01;

ROGERS         CLOUDY    54  54 100 W7        29.95R FOG
SILOAM SPGS    LGT RAIN  53  52  96 W7        29.95S
6HR MIN TEMP:  51; 6HR MAX TEMP:  53;

HIGHFILL       CLOUDY    53  53 100 W8        29.94S
6HR MIN TEMP:  53; 6HR MAX TEMP:  56; 6HR PCP:  0.05;

SPRINGDALE     CLOUDY    52  52 100 W6        29.95S FOG
$$

ARZ004-005-016-230100-
NORTH CENTRAL ARKANSAS

CITY           SKY/WX    TMP DP  RH WIND       PRES   REMARKS
BATESVILLE     CLOUDY    56  54  93 CALM      29.89R
6HR MIN TEMP:  56; 6HR MAX TEMP:  60; 6HR PCP:  0.13;

FLIPPIN        CLOUDY    57  52  83 N6        29.91S
6HR MIN TEMP:  54; 6HR MAX TEMP:  60;

MTN HOME       CLOUDY    56  53  90 VRB3      29.89F
6HR MIN TEMP:  53; 6HR MAX TEMP:  61; 6HR PCP:  0.05;

$$

ARZ040-041-230100-
WEST CENTRAL ARKANSAS

CITY           SKY/WX    TMP DP  RH WIND       PRES   REMARKS
MENA           CLOUDY    54  54 100 W7G16     29.96S
MOUNT IDA      CLOUDY    54  50  86 NW6       29.91S
6HR MIN TEMP:  54; 6HR MAX TEMP:  58;

$$

ARZ009-017-025-026-028-230100-
NORTHEAST ARKANSAS

CITY           SKY/WX    TMP DP  RH WIND       PRES   REMARKS
CORNING        CLOUDY    61  61 100 E15       29.87S
JONESBORO      LGT RAIN  62  60  93 W9        29.85S
6HR MIN TEMP:  59; 6HR MAX TEMP:  67; 6HR PCP:  0.13;

NEWPORT        CLOUDY    58  55  90 NW9       29.88R
6HR MIN TEMP:  58; 6HR MAX TEMP:  60; 6HR PCP: TRACE;

WALNUT RIDGE   CLOUDY    59  57  93 W3        29.86S
6HR MIN TEMP:  55; 6HR MAX TEMP:  60; 6HR PCP:  0.42;

BLYTHEVILLE    MOCLDY    61  58  90 E14       29.86F
6HR MIN TEMP:  58; 6HR MAX TEMP:  64; 6HR PCP:  0.01;

$$

ARZ022-023-033-042-044-230100-
CENTRAL ARKANSAS

CITY           SKY/WX    TMP DP  RH WIND       PRES   REMARKS
LITTLE ROCK    MOCLDY    58  55  90 NW15      29.88R
6HR MIN TEMP:  58; 6HR MAX TEMP:  68;

N LITTLE ROCK    N/A     56  53  90 NW7       29.85R
6HR MIN TEMP:  56; 6HR MAX TEMP:  63;

JACKSONVILLE   CLOUDY    60  55  82 W15       29.87R
6HR MIN TEMP:  60; 6HR MAX TEMP:  68;

CONWAY         MOCLDY    57  54  88 W10       29.89S FOG
SEARCY         MOCLDY    60  57  89 NW3       29.88R
6HR MIN TEMP:  60; 6HR MAX TEMP:  65;

HOT SPRINGS    CLOUDY    56  51  84 NW10G17   29.92R
6HR MIN TEMP:  56; 6HR MAX TEMP:  64;

RUSSELLVILLE   LGT RAIN  54  52  93 NW9       29.92S
6HR MIN TEMP:  54; 6HR MAX TEMP:  60; 6HR PCP:  0.02;

CLINTON        CLOUDY    61  54  77 NW8       29.89R
$$

ARZ036-230100-
EAST ARKANSAS

CITY           SKY/WX    TMP DP  RH WIND       PRES   REMARKS
WEST MEMPHIS   CLOUDY    66  60  81 W3        29.81F
6HR MIN TEMP:  64; 6HR MAX TEMP:  70;

$$

ARZ050-053-066-070-073-230100-
SOUTHWEST ARKANSAS

CITY           SKY/WX    TMP DP  RH WIND       PRES   REMARKS
ARKADELPHIA    CLOUDY    59  52  77 W7        29.92S
6HR MIN TEMP:  59; 6HR MAX TEMP:  66;

CAMDEN         CLOUDY    61  48  63 W8G14     29.91R
TEXARKANA      CLOUDY    57  49  74 NW12      29.96R
6HR MIN TEMP:  56; 6HR MAX TEMP:  60;

EL DORADO      CLOUDY    58  51  78 W9        29.93S
6HR MIN TEMP:  58; 6HR MAX TEMP:  65;

DE QUEEN       CLOUDY    55  50  83 NW8       29.95S
6HR MIN TEMP:  55; 6HR MAX TEMP:  60;

$$

ARZ056-057-069-230100-
SOUTHEAST ARKANSAS

CITY           SKY/WX    TMP DP  RH WIND       PRES   REMARKS
PINE BLUFF     MOCLDY    65  54  67 NW10G18   29.86R
6HR MIN TEMP:  64; 6HR MAX TEMP:  68;

STUTTGART      MOCLDY    65  56  72 NW15      29.86R
6HR MIN TEMP:  64; 6HR MAX TEMP:  69;

MONTICELLO     CLOUDY    65  55  70 W9G17     29.86R
6HR MIN TEMP:  65; 6HR MAX TEMP:  71;


$$





USA.gov is the U.S. government's official web portal to all federal, state and local government web resources and services.